VA3PPY Weather Reports


time (UTC)temp
C
wind
direction
speed
KPH
gust
KPH
rain 1hr
cm
rain 24hr
cm
rain mn
cm
humidity
%
barometer
mb
20260504050106 11 158 9.7 22.5 0.00 0.00 0.00 65 1006.2
20260504044602 11 148 6.4 27.4 0.00 0.00 0.00 63 1006.3
20260504043059 11 203 3.2 20.9 0.00 0.00 0.00 63 1006.3
20260504041602 11 124 6.4 17.7 0.00 0.00 0.00 62 1006.5
20260504034559 12 148 6.4 20.9 0.00 0.00 0.00 60 1006.8
20260504033058 12 132 9.7 27.4 0.00 0.00 0.00 59 1006.7
20260504031559 12 182 9.7 22.5 0.00 0.00 0.00 57 1006.9
20260504030059 13 176 6.4 24.1 0.00 0.00 0.00 56 1006.9
20260504024616 13 195 3.2 16.1 0.00 0.00 0.00 56 1007.1
20260504023059 13 236 3.2 16.1 0.00 0.00 0.00 54 1007.2
20260504021559 13 160 3.2 12.9 0.00 0.00 0.00 53 1007.2
20260504020059 13 200 1.6 14.5 0.00 0.00 0.00 52 1007.1
20260504014606 13 156 1.6 9.7 0.00 0.00 0.00 52 1007.0
20260504013100 14 109 3.2 14.5 0.00 0.00 0.00 50 1006.9
20260504011559 14 155 3.2 11.3 0.00 0.00 0.00 50 1006.8
20260504010108 14 144 1.6 11.3 0.00 0.00 0.00 49 1006.7
20260504004600 14 165 1.6 9.7 0.00 0.00 0.00 49 1006.6
20260504003100 15 176 1.6 11.3 0.00 0.00 0.00 48 1006.4
20260504001559 15 182 3.2 12.9 0.00 0.00 0.00 46 1006.3
20260504000139 15 161 3.2 12.9 0.00 0.00 0.00 46 1006.3
20260503234602 15 153 3.2 12.9 0.00 0.00 0.00 45 1006.3
20260503233100 15 231 0.0 9.7 0.00 0.00 0.00 46 1006.5
20260503231600 15 221 0.0 20.9 0.00 0.00 0.00 45 1006.6
20260503224600 15 145 0.0 14.5 0.00 0.00 0.00 45 1006.9
20260503223100 15 169 1.6 9.7 0.00 0.00 0.00 45 1007.0
20260503223001 15 169 1.6 9.7 0.00 0.00 0.00 46 1007.0
20260503221601 15 162 3.2 14.5 0.00 0.00 0.00 46 1007.0
20260503220100 15 235 1.6 9.7 0.00 0.00 0.00 48 1007.2
20260503214604 15 243 3.2 8.0 0.00 0.00 0.00 46 1007.2
20260503213111 15 223 1.6 9.7 0.00 0.00 0.00 48 1007.2
20260503211620 15 219 3.2 8.0 0.00 0.00 0.00 49 1007.3
20260503204600 15 289 3.2 11.3 0.00 0.00 0.00 46 1007.3
20260503203114 15 202 4.8 11.3 0.00 0.00 0.00 46 1007.5
20260503201600 15 216 3.2 11.3 0.00 0.00 0.00 50 1007.7
20260503200101 13 144 1.6 9.7 0.00 0.00 0.00 52 1007.9
20260503194601 12 171 1.6 4.8 0.00 0.00 0.00 57 1008.3
20260503193004 11 263 1.6 6.4 0.00 0.00 0.00 64 1009.0
20260503191502 12 240 1.6 6.4 0.00 0.00 0.00 61 1009.2
20260503190001 12 240 4.8 9.7 0.00 0.00 0.00 59 1009.4
20260503184501 14 223 3.2 9.7 0.00 0.00 0.00 51 1009.3
20260503183000 14 271 3.2 8.0 0.00 0.00 0.00 50 1009.3
20260503181502 12 248 1.6 6.4 0.00 0.00 0.00 57 1009.3
20260503180000 13 248 1.6 9.7 0.00 0.00 0.00 55 1009.6
20260503174502 13 275 3.2 8.0 0.00 0.00 0.00 54 1009.7
20260503173001 14 255 3.2 11.3 0.00 0.00 0.00 53 1009.7
20260503171502 15 251 6.4 11.3 0.00 0.00 0.00 47 1009.8
20260503081504 3 155 0.0 4.8 0.00 0.00 0.00 73 1013.4
20260503071504 2 188 1.6 3.2 0.00 0.00 0.00 70 1013.3